Location: Shannon
(40.5500°S, 175.4167°E)
Time: 08:05:59
(UTC+00:00)

Envisat - Pass Details

Date: 17 November 2025
Orbit: 761 x 762 km, 98.4° (Epoch: 14 December)

Event Time Altitude Azimuth Distance (km) Brightness Sun altitude
Exits shadow 15:00:20 29° 298° (WNW) 1,373 3.8 -17.5°
Maximum altitude 15:01:19 32° 276° (W) 1,309 3.8 -17.4°
Drops below altitude 10° 15:05:53 10° 213° (SSW) 2,327 5.6 -16.8°
Sets 15:08:28 0° 203° (SSW) 3,262 6.6 -16.4°
